Regional Weather Roundup
Issued by NWS State College, PA

Home | Current Version | Previous Version | Text Only | Print | Product List | Glossary On
Versions: 1 2 3 4 5 6 7 8 9 10 11 12 13 14 15 16 17 18 19 20 21 22 23 24 25 26 27 28 29 30 31 32 33 34 35 36 37 38 39 40 41 42 43 44 45 46 47 48 49 50
000
ASUS41 KCTP 260610
RWRCTP

REGIONAL WEATHER ROUNDUP
NATIONAL WEATHER SERVICE STATE COLLEGE PA
200 AM EDT SUN APR 26 2015

Note: "fair" indicates few or no clouds below 12,000 feet with no
significant weather and/or obstructions to visibility.

* = STATION THAT DOES NOT REPORT PRECIPITATION /E.G. RAIN...SNOW...ETC/
    THUNDER OR FOG.

PAZ002>004-007>009-013>016-020>023-029>032-260700-
WESTERN PENNSYLVANIA

CITY           SKY/WX    TMP DP  RH WIND       PRES   REMARKS
ERIE           CLEAR     37  28  70 NE7       29.77R
MEADVILLE      CLEAR     35  24  64 N6        29.73S
FRANKLIN*      CLEAR     37  23  56 NE9       29.73S
NEW CASTLE     FAIR      42  28  58 NE8       29.72F
BEAVER COUNTY  NOT AVBL
BUTLER*        MOCLDY    41  27  56 NE9       29.70F
PITTSBURGH INT CLOUDY    47  26  44 NE8       29.67S
PITTSBURGH     CLOUDY    44  34  67 SW5       29.67S
INDIANA*       CLOUDY    43  23  45 E9        29.71F
LATROBE        CLOUDY    45  37  76 CALM      29.69S
WASHINGTON CO* CLOUDY    43  37  81 CALM      29.69S
$$

PAZ004>006-010>012-017>019-024>028-033>037-041-042-045-046-049>053-260700-
CENTRAL PENNSYLVANIA

CITY           SKY/WX    TMP DP  RH WIND       PRES   REMARKS
BRADFORD       CLEAR     32  24  72 CALM      29.72R
DUBOIS         PTCLDY    40  25  55 NE8       29.70R
CLEARFIELD     PTCLDY    39  26  59 NE7       29.71S
JOHNSTOWN      MOCLDY    39  27  62 S3        29.65F
ALTOONA        CLOUDY    41  30  65 N5        29.69R
STATE COLLEGE  PTCLDY    40  26  59 N7        29.71S
WILLIAMSPORT   PTCLDY    42  27  55 N5        29.73R
SELINSGROVE    PTCLDY    36  30  79 N8        29.73R
FT INDIANTOWN  PTCLDY    41  26  56 CALM      29.69S
CAPITAL CITY   CLEAR     43  29  57 W6        29.70F
HARRISBURG     MOCLDY    42  30  62 NW8       29.69F
YORK           PTCLDY    35  31  85 W3        29.70S
$$

PAZ038>040-043-044-047-048-054-055-060>062-067>071-260700-
EASTERN PENNSYLVANIA

CITY           SKY/WX    TMP DP  RH WIND       PRES   REMARKS
SCRANTON       PTCLDY    39  25  57 CALM      29.70F
MOUNT POCONO   PTCLDY    37  24  59 NE9       29.66F
ALLENTOWN      PTCLDY    42  28  57 CALM      29.69F
QUAKERTOWN*    PTCLDY    43  27  52 NE3       29.69S
READING        CLEAR     41  30  65 N6        29.68F
LANCASTER      CLEAR     40  29  64 W8        29.68F
COATESVILLE    PTCLDY    43  32  65 NW8       29.68S
POTTSTOWN      CLEAR     39  29  67 CALM      29.69F
BLUE BELL      PTCLDY    41  34  75 CALM      29.67S
DOYLESTOWN     PTCLDY    42  27  55 NE3       29.67F
WILLOW GROVE   NOT AVBL
NORTH PHILA    PTCLDY    47  29  49 NW6       29.69S
PHILADELPHIA   MOCLDY    49  34  56 W6        29.69S
$$



USA.gov is the U.S. government's official web portal to all federal, state and local government web resources and services.